Cross City, FL

5:34 PM EDT on August 20, 2017 (GMT -0400)
Cross City

Weather History for KCTY - January, 2013

Change the Weather History Date:

Saturday, January 19, 2013

  Actual Average Record
Temperature  
Mean Temperature 58 °F 53 °F  
Max Temperature 73 °F 67 °F 78 °F (2001)
Min Temperature 43 °F 40 °F 23 °F (2003)
Degree Days  
Heating Degree Days 7 12  
Month to date heating degree days 102 239  
Since 1 July heating degree days 526 744  
Cooling Degree Days 0 0  
Month to date cooling degree days 41 0  
Year to date cooling degree days 41 0  
Growing Degree Days 8 (Base 50)    
Moisture  
Dew Point 44 °F    
Average Humidity 64    
Maximum Humidity 86    
Minimum Humidity 41    
Precipitation  
Precipitation 0.00 in 0.14 in 1.31 in (2008)
Month to date precipitation 0.46 2.48  
Year to date precipitation 0.46 2.48  
Sea Level Pressure  
Sea Level Pressure 30.28 in    
Wind  
Wind Speed 5 mph (NE)    
Max Wind Speed 12 mph    
Max Gust Speed 17 mph    
T = Trace of Precipitation, MM = Missing Value Source: NWS Daily Summary

Daily Weather History Graph

Daily Weather History Graph

Search for Another Location

Airport or City:

Trip Planner

Search our weather history database for the weather conditions in past years. The results will help you decide how hot, cold, wet, or windy it might be!

Date:

Astronomy

Jan. 19, 2013 Rise Set
Actual Time 7:27 AM EST 5:59 PM EST
Civil Twilight 7:01 AM EST 6:24 PM EST
Nautical Twilight 6:32 AM EST 6:53 PM EST
Astronomical Twilight 6:04 AM EST 7:22 PM EST
Moon 12:19 PM EST (1/19) 1:07 AM EST (1/19)
Length of Visible Light 11h 22m
Length of Day
10h 31m
First Quarter, 57% of the Moon is Illuminated
Jan 19
First Quarter
Jan 26
Full
Feb 3
Last Quarter
Feb 10
New
Feb 17
First Quarter

Hourly Weather History & Observations

Time (EST) Temp. Windchill Dew Point Humidity Pressure Visibility Wind Dir Wind Speed Gust Speed Precip Events Conditions
12:53 AM 44.1 °F 40.8 °F 35.1 °F 71% 30.35 in - NNE 5.8 mph - N/A   Unknown
1:53 AM 44.1 °F 41.5 °F 35.1 °F 71% 30.34 in - NNE 4.6 mph - N/A   Unknown
2:53 AM 44.1 °F 42.5 °F 35.1 °F 71% 30.34 in - ENE 3.5 mph - N/A   Unknown
3:53 AM 44.1 °F 42.5 °F 36.0 °F 73% 30.32 in - NE 3.5 mph - N/A   Unknown
4:53 AM 44.1 °F 40.8 °F 36.0 °F 73% 30.32 in - NE 5.8 mph - N/A   Unknown
5:53 AM 44.1 °F 40.8 °F 36.0 °F 73% 30.32 in - NE 5.8 mph - N/A   Unknown
6:53 AM 43.0 °F 38.8 °F 35.1 °F 74% 30.34 in - NNE 6.9 mph - N/A   Unknown
7:53 AM 43.0 °F 38.8 °F 35.1 °F 74% 30.35 in - NE 6.9 mph - N/A   Unknown
8:53 AM 48.0 °F - 37.0 °F 66% 30.36 in - NE 8.1 mph - N/A   Unknown
9:53 AM 53.1 °F - 41.0 °F 64% 30.37 in - ENE 8.1 mph - N/A   Unknown
10:53 AM 59.0 °F - 44.1 °F 58% 30.36 in - NE 10.4 mph - N/A   Unknown
11:53 AM 64.0 °F - 46.9 °F 54% 30.33 in - NE 6.9 mph - N/A   Unknown
12:53 PM 68.0 °F - 48.9 °F 50% 30.27 in - East 6.9 mph - N/A   Unknown
1:53 PM 69.1 °F - 48.9 °F 49% 30.22 in - East 6.9 mph - N/A   Unknown
2:53 PM 72.0 °F - 46.9 °F 41% 30.20 in - ENE 9.2 mph - N/A   Unknown
3:53 PM 71.1 °F - 46.9 °F 42% 30.20 in - Variable 4.6 mph - N/A   Unknown
4:53 PM 71.1 °F - 48.0 °F 44% 30.21 in - NNE 5.8 mph - N/A   Unknown
5:53 PM 66.0 °F - 48.9 °F 54% 30.20 in - NE 3.5 mph - N/A   Unknown
6:53 PM 61.0 °F - 50.0 °F 67% 30.22 in - Calm Calm - N/A   Unknown
7:53 PM 61.0 °F - 50.0 °F 67% 30.22 in - NE 3.5 mph - N/A   Unknown
8:53 PM 60.1 °F - 52.0 °F 75% 30.23 in - East 5.8 mph - N/A   Unknown
9:53 PM 59.0 °F - 53.1 °F 81% 30.23 in - East 3.5 mph - N/A   Unknown
10:53 PM 57.9 °F - 53.1 °F 84% 30.22 in - Calm Calm - N/A   Unknown
11:53 PM 57.9 °F - 53.1 °F 84% 30.21 in - Calm Calm - N/A   Unknown